Satellite: METEOR-M
Catalog number: 35865
Epoch time: 09350.66044659
Element set: 79
Inclination: 098.7871 deg
RA of node: 040.5251 deg
Eccentricity: 0.0002599
Arg of perigee: 154.8513 deg
Mean anomaly: 205.2734 deg
Mean motion: 14.21828345 rev/day
Decay rate: 1.76e-06 rev/day^2
Epoch rev: 1278
Checksum: 312
/EX
More information about the Keps
mailing list